Reading, PA

1:14 AM EDT on September 25, 2016 (GMT -0400)
Reading Regional-Spaatz

Weather History for KRDG - June, 2013

Change the Weather History Date:

Monday, June 24, 2013

  Actual Average Record
Temperature  
Mean Temperature 82 °F 73 °F  
Max Temperature 94 °F 84 °F 98 °F (1943)
Min Temperature 70 °F 62 °F 46 °F (1902)
Degree Days  
Heating Degree Days 0 0  
Month to date heating degree days 2 23  
Since 1 June heating degree days 2 23  
Since 1 July heating degree days 4990 5391  
Cooling Degree Days 17 8  
Month to date cooling degree days 160 137  
Year to date cooling degree days 259 197  
Since 1 June cooling degree days 160 137  
Growing Degree Days 31 (Base 50)    
Moisture  
Dew Point 68 °F    
Average Humidity 66    
Maximum Humidity 93    
Minimum Humidity 39    
Precipitation  
Precipitation T in 0.10 in 0.78 in (1989)
Month to date precipitation 4.99 3.11  
Year to date precipitation 18.03 20.13  
Sea Level Pressure  
Sea Level Pressure 30.06 in    
Wind  
Wind Speed 5 mph (SW)    
Max Wind Speed 20 mph    
Max Gust Speed 25 mph    
Visibility 8 miles    
Events Fog , Rain , Thunderstorm    
T = Trace of Precipitation, MM = Missing Value Source: NWS Daily Summary

Daily Weather History Graph

Daily Weather History Graph

Search for Another Location

Airport or City:

Trip Planner

Search our weather history database for the weather conditions in past years. The results will help you decide how hot, cold, wet, or windy it might be!

Date:

Astronomy

Jun. 24, 2013 Rise Set
Actual Time 5:34 AM EDT 8:37 PM EDT
Civil Twilight 5:01 AM EDT 9:10 PM EDT
Nautical Twilight 4:19 AM EDT 9:53 PM EDT
Astronomical Twilight 3:29 AM EDT 10:42 PM EDT
Moon 9:38 PM EDT (6/24) 6:59 AM EDT (6/24)
Length of Visible Light 16h 09m
Length of Day
15h 03m
Full, 98% of the Moon is Illuminated
Jun 24
Full
Jun 30
Last Quarter
Jul 8
New
Jul 15
First Quarter
Jul 22
Full

Hourly Weather History & Observations

Time (EDT) Temp. Heat Index Dew Point Humidity Pressure Visibility Wind Dir Wind Speed Gust Speed Precip Events Conditions
12:54 AM 75.9 °F - 71.1 °F 85% 30.10 in 10.0 mi SSW 3.5 mph - N/A   Partly Cloudy
1:54 AM 75.0 °F - 71.1 °F 87% 30.09 in 10.0 mi Calm Calm - N/A   Partly Cloudy
2:54 AM 73.9 °F - 71.1 °F 91% 30.09 in 10.0 mi Calm Calm - N/A   Clear
3:54 AM 73.0 °F - 71.1 °F 93% 30.09 in 9.0 mi Calm Calm - N/A   Clear
4:54 AM 72.0 °F - 70.0 °F 93% 30.09 in 10.0 mi Calm Calm - N/A   Clear
5:43 AM 69.8 °F - 69.8 °F 100% 30.08 in 1.5 mi Calm Calm - N/A   Clear
5:48 AM 71.6 °F - 69.8 °F 94% 30.08 in 0.5 mi Calm Calm - N/A Fog Fog
5:54 AM 71.1 °F - 69.1 °F 93% 30.09 in 0.5 mi Calm Calm - N/A Fog Fog
6:00 AM 71.6 °F - 69.8 °F 94% 30.08 in 1.5 mi Calm Calm - N/A   Clear
6:02 AM 71.6 °F - 69.8 °F 94% 30.09 in 3.0 mi Calm Calm - N/A   Clear
6:30 AM 71.6 °F - 69.8 °F 94% 30.09 in 2.0 mi Calm Calm - N/A   Clear
6:41 AM 71.6 °F - 69.8 °F 94% 30.09 in 6.0 mi Calm Calm - N/A   Clear
6:54 AM 73.0 °F - 70.0 °F 90% 30.10 in 10.0 mi Calm Calm - N/A   Clear
7:54 AM 75.9 °F - 69.1 °F 79% 30.11 in 10.0 mi WSW 4.6 mph - N/A   Clear
8:54 AM 80.1 °F 83.2 °F 70.0 °F 71% 30.11 in 10.0 mi WSW 4.6 mph - N/A   Clear
9:54 AM 84.9 °F 88.8 °F 69.1 °F 59% 30.09 in 10.0 mi West 4.6 mph - N/A   Clear
10:54 AM 87.1 °F 91.3 °F 69.1 °F 55% 30.10 in 10.0 mi WNW 6.9 mph - N/A   Clear
11:54 AM 89.1 °F 94.1 °F 70.0 °F 53% 30.09 in 10.0 mi Variable 6.9 mph - N/A   Clear
12:54 PM 91.0 °F 95.2 °F 68.0 °F 47% 30.08 in 10.0 mi WSW 6.9 mph - N/A   Partly Cloudy
1:54 PM 91.9 °F 95.4 °F 66.9 °F 44% 30.05 in 10.0 mi WSW 10.4 mph - N/A   Partly Cloudy
2:54 PM 93.0 °F 95.0 °F 64.9 °F 39% 30.02 in 10.0 mi West 9.2 mph - N/A   Scattered Clouds
3:54 PM 91.9 °F 94.5 °F 66.0 °F 42% 30.00 in 10.0 mi SW 10.4 mph - N/A   Clear
4:54 PM 89.1 °F 92.1 °F 66.9 °F 48% 30.00 in 10.0 mi WSW 11.5 mph - 0.00 in Rain Light Rain
5:28 PM 87.8 °F 91.4 °F 68.0 °F 52% 29.99 in 10.0 mi SW 11.5 mph - 0.00 in   Clear
5:50 PM 82.4 °F 84.6 °F 66.2 °F 58% 29.99 in 10.0 mi SW 15.0 mph 25.3 mph 0.00 in   Clear
5:54 PM 82.9 °F 85.0 °F 66.0 °F 56% 30.00 in 10.0 mi SSW 17.3 mph 23.0 mph 0.00 in Thunderstorm Clear
6:12 PM 82.4 °F 84.6 °F 66.2 °F 58% 30.00 in 10.0 mi South 8.1 mph - N/A   Clear
6:54 PM 82.9 °F 85.4 °F 66.9 °F 58% 30.00 in 10.0 mi Calm Calm - N/A   Clear
7:54 PM 81.0 °F 82.7 °F 64.9 °F 58% 30.01 in 10.0 mi South 10.4 mph - N/A   Clear
8:54 PM 79.0 °F - 66.0 °F 64% 30.00 in 10.0 mi Calm Calm - N/A   Clear
9:54 PM 75.9 °F - 66.0 °F 71% 30.02 in 10.0 mi Calm Calm - N/A   Clear
10:54 PM 75.0 °F - 66.0 °F 73% 30.04 in 10.0 mi SW 4.6 mph - N/A   Clear
11:54 PM 73.9 °F - 64.9 °F 73% 30.03 in 10.0 mi South 3.5 mph - N/A   Clear